Liberty, KS

5:46 AM CST on December 06, 2016 (GMT -0600)
Coffeyville Municipal

Weather History for KCFV - November, 2012

Change the Weather History Date:

Thursday, November 8, 2012

  Actual Average Record
Temperature  
Mean Temperature 54 °F -  
Max Temperature 72 °F 57 °F 84 °F (2006)
Min Temperature 37 °F 38 °F 30 °F (1997)
Degree Days  
Heating Degree Days 10    
Growing Degree Days 4 (Base 50)    
Moisture  
Dew Point 38 °F    
Average Humidity 53    
Maximum Humidity 73    
Minimum Humidity 33    
Precipitation  
Precipitation 0.00 in - - ()
Sea Level Pressure  
Sea Level Pressure 29.99 in    
Wind  
Wind Speed 8 mph (SSE)    
Max Wind Speed 24 mph    
Max Gust Speed 34 mph    
Visibility 10 miles    
Events      
Averages and records for this station are not official NWS values.
T = Trace of Precipitation, MM = Missing Value Source: NWS Daily Summary

Daily Weather History Graph

Daily Weather History Graph

Search for Another Location

Airport or City:

Trip Planner

Search our weather history database for the weather conditions in past years. The results will help you decide how hot, cold, wet, or windy it might be!

Date:

Astronomy

Nov. 08, 2012 Rise Set
Actual Time 6:54 AM CST 5:17 PM CST
Civil Twilight 6:26 AM CST 5:44 PM CST
Nautical Twilight 5:55 AM CST 6:15 PM CST
Astronomical Twilight 5:25 AM CST 6:46 PM CST
Moon 12:58 AM CST (11/8) 1:51 PM CST (11/8)
Length of Visible Light 11h 17m
Length of Day
10h 23m
Waning Crescent, 32% of the Moon is Illuminated
Nov 8
Waning Crescent
Nov 13
New
Nov 20
First Quarter
Nov 28
Full
Dec 6
Last Quarter

Hourly Weather History & Observations

Time (CST) Temp. Windchill Dew Point Humidity Pressure Visibility Wind Dir Wind Speed Gust Speed Precip Events Conditions
12:52 AM 37.9 °F - 30.0 °F 73% 30.11 in 10.0 mi Calm Calm - N/A   Clear
1:52 AM 39.0 °F - 30.9 °F 73% 30.10 in 10.0 mi Calm Calm - N/A   Clear
2:52 AM 42.1 °F - 32.0 °F 67% 30.09 in 10.0 mi Calm Calm - N/A   Clear
3:52 AM 43.0 °F 39.5 °F 33.1 °F 68% 30.07 in 10.0 mi SE 5.8 mph - N/A   Clear
4:52 AM 44.1 °F 40.8 °F 33.1 °F 65% 30.07 in 10.0 mi SSE 5.8 mph - N/A   Clear
5:52 AM 42.1 °F 38.4 °F 33.1 °F 70% 30.07 in 10.0 mi SSE 5.8 mph - N/A   Clear
6:52 AM 41.0 °F 37.1 °F 33.1 °F 73% 30.06 in 10.0 mi SSE 5.8 mph - N/A   Clear
7:52 AM 46.0 °F 41.4 °F 35.1 °F 66% 30.07 in 10.0 mi SSE 9.2 mph - N/A   Clear
8:52 AM 52.0 °F - 35.1 °F 53% 30.08 in 10.0 mi South 13.8 mph - N/A   Clear
9:52 AM 59.0 °F - 35.1 °F 41% 30.05 in 10.0 mi South 18.4 mph 25.3 mph N/A   Clear
10:52 AM 64.0 °F - 35.1 °F 34% 30.03 in 10.0 mi South 23.0 mph 34.5 mph N/A   Clear
11:52 AM 66.9 °F - 37.0 °F 33% 30.00 in 10.0 mi South 24.2 mph 34.5 mph N/A   Clear
12:52 PM 69.1 °F - 39.0 °F 33% 29.95 in 10.0 mi South 21.9 mph 28.8 mph N/A   Clear
1:52 PM 71.1 °F - 41.0 °F 34% 29.91 in 10.0 mi South 21.9 mph 29.9 mph N/A   Clear
2:52 PM 72.0 °F - 41.0 °F 33% 29.88 in 10.0 mi South 18.4 mph 28.8 mph N/A   Clear
3:52 PM 72.0 °F - 42.1 °F 34% 29.88 in 10.0 mi South 18.4 mph 25.3 mph N/A   Clear
4:52 PM 69.1 °F - 42.1 °F 38% 29.87 in 10.0 mi SSE 15.0 mph 24.2 mph N/A   Clear
6:52 PM 64.0 °F - 44.1 °F 48% 29.92 in 10.0 mi SSE 8.1 mph - N/A   Clear
7:52 PM 61.0 °F - 44.1 °F 54% 29.91 in 10.0 mi SSE 10.4 mph - N/A   Clear
8:52 PM 59.0 °F - 45.0 °F 60% 29.91 in 10.0 mi SSE 11.5 mph - N/A   Clear
9:52 PM 60.1 °F - 45.0 °F 57% 29.91 in 10.0 mi SSE 10.4 mph - N/A   Clear
10:52 PM 61.0 °F - 45.0 °F 56% 29.90 in 10.0 mi South 11.5 mph - N/A   Clear
11:52 PM 62.1 °F - 44.1 °F 52% 29.89 in 10.0 mi South 13.8 mph - N/A   Clear